Regional Weather Roundup
Issued by NWS

Home | Current Version | Previous Version | Text Only | Print | Product List | Glossary Off
Versions: 1 2 3 4 5 6 7 8 9 10 11 12 13 14 15 16 17 18 19 20 21 22 23 24 25 26 27 28 29 30 31 32 33 34 35 36 37 38 39 40 41 42 43 44 45 46 47 48 49 50

000
ASUS43 KLSX 281059
RWRMO

WEATHER SUMMARY FOR MISSOURI
NATIONAL WEATHER SERVICE SPRINGFIELD MO
600 AM CDT THU AUG 28 2014

NOTE: "FAIR" INDICATES FEW OR NO CLOUDS BELOW 12,000 FEET WITH NO
       SIGNIFICANT WEATHER AND/OR OBSTRUCTIONS TO VISIBILITY.
       CURRENT SKY AND/OR WEATHER CONDITIONS ARE NOT AVAILABLE FOR
       CHILLICOTHE AND FARMINGTON.

MOZ001>031-035>038-043-044-053-054-281200-
...NORTHERN AND WESTERN MISSOURI...

CITY           SKY/WX    TMP DP  RH WIND       PRES   REMARKS
KANSAS CTY INT CLOUDY    74  72  93 SE6       29.97F
KANSAS C DTWN  CLOUDY    76  72  87 E5        29.96S
LEE`S SUMMIT   MOCLDY    75  71  87 CALM      29.98S
ST JOSEPH      CLOUDY    73  71  93 CALM      29.96F
KIRKSVILLE     CLOUDY    71  70  96 E5        30.03F FOG

$$
MOZ066>068-077>081-088>096-101>105-281200-
...SOUTHWEST MISSOURI...

CITY           SKY/WX    TMP DP  RH WIND       PRES   REMARKS
SPRINGFIELD    PTCLDY    73  69  87 SE9       30.02F
JOPLIN         CLEAR     74  69  85 S7        30.00S

$$
MOZ032>034-039>042-045>050-055>058-069>072-281200-
...CENTRAL MISSOURI...

CITY           SKY/WX    TMP DP  RH WIND       PRES   REMARKS
COLUMBIA       PTCLDY    69  68  96 SE7       30.02S
JEFFERSON CITY CLEAR     70  67  90 SE3       30.01S
ROLLA          CLEAR     69  66  90 CALM      30.03R
SEDALIA        PTCLDY    71  67  87 CALM      30.01R
OSAGE BEACH    CLEAR     72  66  83 SE5       30.01F

$$
MOZ051-052-059>065-281200-
...EAST CENTRAL MISSOURI...

CITY           SKY/WX    TMP DP  RH WIND       PRES   REMARKS
ST LOUIS INTL  PTCLDY    72  69  90 E3        30.05S
SPIRIT OF STL  CLEAR     70  69  97 CALM      30.03R FOG
ST CHARLES     CLEAR     70  68  93 E3        30.03S FOG

$$
MOZ072>076-082>087-097>100-106>115-281200-
...SOUTH CENTRAL AND SOUTHEAST MISSOURI...

CITY           SKY/WX    TMP DP  RH WIND       PRES   REMARKS
CAPE GIRARDEAU CLEAR     72  70  93 CALM      30.03R FOG
FARMINGTON     CLEAR     68  66  94 CALM      30.07S
POPLAR BLUFF   CLEAR     73  69  87 N3        30.02R FOG
WEST PLAINS    CLEAR     67  65  93 CALM      30.07R

$$


USA.gov is the U.S. government's official web portal to all federal, state and local government web resources and services.